Year,Month,Day,Hour,Minute,Value (Times are PST for temperature in C)
2018,05,21,00,00,11.30
2018,05,21,00,01,11.30
2018,05,21,00,02,11.30
2018,05,21,00,03,11.30
2018,05,21,00,04,11.30
2018,05,21,00,05,11.30
2018,05,21,00,06,11.30
2018,05,21,00,07,11.20
2018,05,21,00,08,11.20
2018,05,21,00,09,11.20
2018,05,21,00,10,11.20
2018,05,21,00,11,11.10
2018,05,21,00,12,11.10
2018,05,21,00,13,11.10
2018,05,21,00,14,11.10
2018,05,21,00,15,11.10
2018,05,21,00,16,11.10
2018,05,21,00,17,11.10
2018,05,21,00,18,11.20
2018,05,21,00,19,11.20
2018,05,21,00,20,11.20
2018,05,21,00,21,11.20
2018,05,21,00,22,11.20
2018,05,21,00,23,11.20
2018,05,21,00,24,11.20
2018,05,21,00,25,11.30
2018,05,21,00,26,11.30
2018,05,21,00,27,11.30
2018,05,21,00,28,11.30
2018,05,21,00,29,11.30
2018,05,21,00,30,11.30
2018,05,21,00,31,11.30
2018,05,21,00,32,11.30
2018,05,21,00,33,11.30
2018,05,21,00,34,11.20
2018,05,21,00,35,11.30
2018,05,21,00,36,11.30
2018,05,21,00,37,11.30
2018,05,21,00,38,11.30
2018,05,21,00,39,11.30
2018,05,21,00,40,11.30
2018,05,21,00,41,11.30
2018,05,21,00,42,11.30
2018,05,21,00,43,11.30
2018,05,21,00,44,11.40
2018,05,21,00,45,11.40
2018,05,21,00,46,11.40
2018,05,21,00,47,11.50
2018,05,21,00,48,11.50
2018,05,21,00,49,11.50
2018,05,21,00,50,11.60
2018,05,21,00,51,11.60
2018,05,21,00,52,11.60
2018,05,21,00,53,11.70
2018,05,21,00,54,11.70
2018,05,21,00,55,11.70
2018,05,21,00,56,11.70
2018,05,21,00,57,11.70
2018,05,21,00,58,11.70
2018,05,21,00,59,11.70
2018,05,21,01,00,11.70
2018,05,21,01,01,11.70
2018,05,21,01,02,11.70
2018,05,21,01,03,11.60
2018,05,21,01,04,11.60
2018,05,21,01,05,11.60
2018,05,21,01,06,11.60
2018,05,21,01,07,11.60
2018,05,21,01,08,11.60
2018,05,21,01,09,11.60
2018,05,21,01,10,11.60
2018,05,21,01,11,11.60
2018,05,21,01,12,11.60
2018,05,21,01,13,11.60
2018,05,21,01,14,11.50
2018,05,21,01,15,11.50
2018,05,21,01,16,11.40
2018,05,21,01,17,11.40
2018,05,21,01,18,11.40
2018,05,21,01,19,11.40
2018,05,21,01,20,11.40
2018,05,21,01,21,11.40
2018,05,21,01,22,11.40
2018,05,21,01,23,11.30
2018,05,21,01,24,11.30
2018,05,21,01,25,11.30
2018,05,21,01,26,11.20
2018,05,21,01,27,11.20
2018,05,21,01,28,11.20
2018,05,21,01,29,11.10
2018,05,21,01,30,11.10
2018,05,21,01,31,11.10
2018,05,21,01,32,11.00
2018,05,21,01,33,11.00
2018,05,21,01,34,11.00
2018,05,21,01,35,10.90
2018,05,21,01,36,10.90
2018,05,21,01,37,10.90
2018,05,21,01,38,10.90
2018,05,21,01,39,10.90
2018,05,21,01,40,10.90
2018,05,21,01,41,10.90
2018,05,21,01,42,10.90
2018,05,21,01,43,10.90
2018,05,21,01,44,10.90
2018,05,21,01,45,11.00
2018,05,21,01,46,11.00
2018,05,21,01,47,11.00
2018,05,21,01,48,11.00
2018,05,21,01,49,11.10
2018,05,21,01,50,11.10
2018,05,21,01,51,11.10
2018,05,21,01,52,11.20
2018,05,21,01,53,11.20
2018,05,21,01,54,11.20
2018,05,21,01,55,11.20
2018,05,21,01,56,11.20
2018,05,21,01,57,11.20
2018,05,21,01,58,11.20
2018,05,21,01,59,11.20
2018,05,21,02,00,11.20
2018,05,21,02,01,11.20
2018,05,21,02,02,11.20
2018,05,21,02,03,11.20
2018,05,21,02,04,11.30
2018,05,21,02,05,11.30
2018,05,21,02,06,11.30
2018,05,21,02,07,11.30
2018,05,21,02,08,11.30
2018,05,21,02,09,11.40
2018,05,21,02,10,11.40
2018,05,21,02,11,11.40
2018,05,21,02,12,11.40
2018,05,21,02,13,11.40
2018,05,21,02,14,11.40
2018,05,21,02,15,11.50
2018,05,21,02,16,11.50
2018,05,21,02,17,11.50
2018,05,21,02,18,11.60
2018,05,21,02,19,11.60
2018,05,21,02,20,11.60
2018,05,21,02,21,11.60
2018,05,21,02,22,11.60
2018,05,21,02,23,11.60
2018,05,21,02,24,11.60
2018,05,21,02,25,11.60
2018,05,21,02,26,11.70
2018,05,21,02,27,11.60
2018,05,21,02,28,11.70
2018,05,21,02,29,11.60
2018,05,21,02,30,11.60
2018,05,21,02,31,11.60
2018,05,21,02,32,11.60
2018,05,21,02,33,11.60
2018,05,21,02,34,11.60
2018,05,21,02,35,11.60
2018,05,21,02,36,11.70
2018,05,21,02,37,11.60
2018,05,21,02,38,11.60
2018,05,21,02,39,11.60
2018,05,21,02,40,11.60
2018,05,21,02,41,11.60
2018,05,21,02,42,11.60
2018,05,21,02,43,11.60
2018,05,21,02,44,11.60
2018,05,21,02,45,11.50
2018,05,21,02,46,11.50
2018,05,21,02,47,11.50
2018,05,21,02,48,11.50
2018,05,21,02,49,11.50
2018,05,21,02,50,11.50
2018,05,21,02,51,11.50
2018,05,21,02,52,11.50
2018,05,21,02,53,11.50
2018,05,21,02,54,11.60
2018,05,21,02,55,11.60
2018,05,21,02,56,11.60
2018,05,21,02,57,11.60
2018,05,21,02,58,11.60
2018,05,21,02,59,11.60
2018,05,21,03,00,11.60
2018,05,21,03,01,11.50
2018,05,21,03,02,11.50
2018,05,21,03,03,11.50
2018,05,21,03,04,11.50
2018,05,21,03,05,11.50
2018,05,21,03,06,11.50
2018,05,21,03,07,11.50
2018,05,21,03,08,11.50
2018,05,21,03,09,11.50
2018,05,21,03,10,11.50
2018,05,21,03,11,11.50
2018,05,21,03,12,11.60
2018,05,21,03,13,11.60
2018,05,21,03,14,11.60
2018,05,21,03,15,11.60
2018,05,21,03,16,11.50
2018,05,21,03,17,11.60
2018,05,21,03,18,11.60
2018,05,21,03,19,11.50
2018,05,21,03,20,11.60
2018,05,21,03,21,11.60
2018,05,21,03,22,11.60
2018,05,21,03,23,11.60
2018,05,21,03,24,11.60
2018,05,21,03,25,11.60
2018,05,21,03,26,11.70
2018,05,21,03,27,11.70
2018,05,21,03,28,11.70
2018,05,21,03,29,11.70
2018,05,21,03,30,11.80
2018,05,21,03,31,11.80
2018,05,21,03,32,11.80
2018,05,21,03,33,11.80
2018,05,21,03,34,11.80
2018,05,21,03,35,11.90
2018,05,21,03,36,11.90
2018,05,21,03,37,11.90
2018,05,21,03,38,11.90
2018,05,21,03,39,12.00
2018,05,21,03,40,12.00
2018,05,21,03,41,12.00
2018,05,21,03,42,12.00
2018,05,21,03,43,12.10
2018,05,21,03,44,12.10
2018,05,21,03,45,12.10
2018,05,21,03,46,12.10
2018,05,21,03,47,12.20
2018,05,21,03,48,12.20
2018,05,21,03,49,12.20
2018,05,21,03,50,12.20
2018,05,21,03,51,12.20
2018,05,21,03,52,12.20
2018,05,21,03,53,12.20
2018,05,21,03,54,12.20
2018,05,21,03,55,12.20
2018,05,21,03,56,12.20
2018,05,21,03,57,12.20
2018,05,21,03,58,12.20
2018,05,21,03,59,12.20
2018,05,21,04,00,12.20
2018,05,21,04,01,12.20
2018,05,21,04,02,12.20
2018,05,21,04,03,12.20
2018,05,21,04,04,12.20
2018,05,21,04,05,12.20
2018,05,21,04,06,12.10
2018,05,21,04,07,12.10
2018,05,21,04,08,12.10
2018,05,21,04,09,12.10
2018,05,21,04,10,12.10
2018,05,21,04,11,12.10
2018,05,21,04,12,12.00
2018,05,21,04,13,12.00
2018,05,21,04,14,12.00
2018,05,21,04,15,12.00
2018,05,21,04,16,11.90
2018,05,21,04,17,11.90
2018,05,21,04,18,11.90
2018,05,21,04,19,11.90
2018,05,21,04,20,11.90
2018,05,21,04,21,11.90
2018,05,21,04,22,11.90
2018,05,21,04,23,11.90
2018,05,21,04,24,11.90
2018,05,21,04,25,11.90
2018,05,21,04,26,12.00
2018,05,21,04,27,12.00
2018,05,21,04,28,12.00
2018,05,21,04,29,12.10
2018,05,21,04,30,12.10
2018,05,21,04,31,12.10
2018,05,21,04,32,12.10
2018,05,21,04,33,12.10
2018,05,21,04,34,12.10
2018,05,21,04,35,12.10
2018,05,21,04,36,12.10
2018,05,21,04,37,12.10
2018,05,21,04,38,12.10
2018,05,21,04,39,12.10
2018,05,21,04,40,12.10
2018,05,21,04,41,12.10
2018,05,21,04,42,12.10
2018,05,21,04,43,12.10
2018,05,21,04,44,12.10
2018,05,21,04,45,12.10
2018,05,21,04,46,12.10
2018,05,21,04,47,12.10
2018,05,21,04,48,12.10
2018,05,21,04,49,12.10
2018,05,21,04,50,12.10
2018,05,21,04,51,12.10
2018,05,21,04,52,12.10
2018,05,21,04,53,12.10
2018,05,21,04,54,12.10
2018,05,21,04,55,12.10
2018,05,21,04,56,12.10
2018,05,21,04,57,12.10
2018,05,21,04,58,12.10
2018,05,21,04,59,12.10
2018,05,21,05,00,12.10
2018,05,21,05,01,12.10
2018,05,21,05,02,12.10
2018,05,21,05,03,12.10
2018,05,21,05,04,12.10
2018,05,21,05,05,12.10
2018,05,21,05,06,12.10
2018,05,21,05,07,12.10
2018,05,21,05,08,12.10
2018,05,21,05,09,12.10
2018,05,21,05,10,12.10
2018,05,21,05,11,12.10
2018,05,21,05,12,12.10
2018,05,21,05,13,12.10
2018,05,21,05,14,12.10
2018,05,21,05,15,12.10
2018,05,21,05,16,12.10
2018,05,21,05,17,12.20
2018,05,21,05,18,12.20
2018,05,21,05,19,12.20
2018,05,21,05,20,12.20
2018,05,21,05,21,12.20
2018,05,21,05,22,12.20
2018,05,21,05,23,12.20
2018,05,21,05,24,12.20
2018,05,21,05,25,12.20
2018,05,21,05,26,12.20
2018,05,21,05,27,12.20
2018,05,21,05,28,12.20
2018,05,21,05,29,12.20
2018,05,21,05,30,12.20
2018,05,21,05,31,12.20
2018,05,21,05,32,12.20
2018,05,21,05,33,12.20
2018,05,21,05,34,12.20
2018,05,21,05,35,12.20
2018,05,21,05,36,12.20
2018,05,21,05,37,12.20
2018,05,21,06,51,12.80
2018,05,21,06,52,12.80
2018,05,21,06,53,12.80
2018,05,21,06,54,12.80
2018,05,21,06,55,12.80
2018,05,21,06,56,12.90
2018,05,21,06,57,12.90
2018,05,21,06,58,12.90
2018,05,21,06,59,12.90
2018,05,21,07,00,12.90
2018,05,21,07,01,12.90
2018,05,21,07,02,12.90
2018,05,21,07,03,12.90
2018,05,21,07,04,12.90
2018,05,21,07,05,12.90
2018,05,21,07,06,13.00
2018,05,21,07,07,13.00
2018,05,21,07,08,13.00
2018,05,21,07,09,13.00
2018,05,21,07,10,13.00
2018,05,21,07,11,13.00
2018,05,21,07,12,13.00
2018,05,21,07,13,13.00
2018,05,21,07,14,13.10
2018,05,21,07,15,13.10
2018,05,21,07,16,13.10
2018,05,21,07,17,13.10
2018,05,21,07,18,13.20
2018,05,21,07,19,13.20
2018,05,21,07,20,13.20
2018,05,21,07,21,13.20
2018,05,21,07,22,13.20
2018,05,21,07,23,13.20
2018,05,21,07,24,13.20
2018,05,21,07,25,13.20
2018,05,21,07,26,13.30
2018,05,21,07,27,13.30
2018,05,21,07,28,13.30
2018,05,21,07,29,13.30
2018,05,21,07,30,13.30
2018,05,21,07,31,13.30
2018,05,21,07,32,13.30
2018,05,21,07,33,13.30
2018,05,21,07,34,13.30
2018,05,21,07,35,13.30
2018,05,21,07,36,13.30
2018,05,21,07,37,13.30
2018,05,21,07,38,13.30
2018,05,21,07,39,13.40
2018,05,21,07,40,13.40
2018,05,21,07,41,13.40
2018,05,21,07,42,13.40
2018,05,21,07,43,13.40
2018,05,21,07,44,13.40
2018,05,21,07,45,13.40
2018,05,21,07,46,13.40
2018,05,21,07,47,13.40
2018,05,21,07,48,13.50
2018,05,21,07,49,13.50
2018,05,21,07,50,13.50
2018,05,21,07,51,13.50
2018,05,21,07,52,13.50
2018,05,21,07,53,13.50
2018,05,21,07,54,13.60
2018,05,21,07,55,13.60
2018,05,21,07,56,13.60
2018,05,21,07,57,13.60
2018,05,21,07,58,13.60
2018,05,21,07,59,13.60
2018,05,21,08,00,13.60
2018,05,21,08,01,13.60
2018,05,21,08,02,13.60
2018,05,21,08,03,13.60
2018,05,21,08,04,13.60
2018,05,21,08,05,13.60
2018,05,21,08,06,13.70
2018,05,21,08,07,13.70
2018,05,21,08,08,13.70
2018,05,21,08,09,13.70
2018,05,21,08,10,13.70
2018,05,21,08,11,13.70
2018,05,21,08,12,13.70
2018,05,21,08,13,13.70
2018,05,21,08,14,13.70
2018,05,21,08,15,13.70
2018,05,21,08,16,13.70
2018,05,21,08,17,13.70
2018,05,21,08,18,13.80
2018,05,21,08,19,13.80
2018,05,21,08,20,13.80
2018,05,21,08,21,13.80
2018,05,21,08,22,13.80
2018,05,21,08,23,13.80
2018,05,21,08,24,13.80
2018,05,21,08,25,13.80
2018,05,21,08,26,13.90
2018,05,21,08,27,13.90
2018,05,21,08,28,13.90
2018,05,21,08,29,13.90
2018,05,21,08,30,13.90
2018,05,21,08,31,13.90
2018,05,21,08,32,14.00
2018,05,21,08,33,14.00
2018,05,21,08,34,14.00
2018,05,21,08,35,14.00
2018,05,21,08,36,14.00
2018,05,21,08,37,13.90
2018,05,21,08,38,13.90
2018,05,21,08,39,13.90
2018,05,21,08,40,13.90
2018,05,21,08,41,13.80
2018,05,21,08,42,13.80
2018,05,21,08,43,13.80
2018,05,21,08,44,13.80
2018,05,21,08,45,13.80
2018,05,21,08,46,13.80
2018,05,21,08,47,13.80
2018,05,21,08,48,13.80
2018,05,21,08,49,13.80
2018,05,21,08,50,13.80
2018,05,21,08,51,13.80
2018,05,21,08,52,13.80
2018,05,21,08,53,13.80
2018,05,21,08,54,13.80
2018,05,21,08,55,13.80
2018,05,21,08,56,13.80
2018,05,21,08,57,13.80
2018,05,21,08,58,13.80
2018,05,21,08,59,13.90
2018,05,21,09,00,13.90
2018,05,21,09,01,13.90
2018,05,21,09,02,13.80
2018,05,21,09,03,13.80
2018,05,21,09,04,13.80
2018,05,21,09,05,13.80
2018,05,21,09,06,13.80
2018,05,21,09,07,13.80
2018,05,21,09,08,13.80
2018,05,21,09,09,13.80
2018,05,21,09,10,13.80
2018,05,21,09,11,13.80
2018,05,21,09,12,13.80
2018,05,21,09,13,13.90
2018,05,21,09,14,13.80
2018,05,21,09,15,13.80
2018,05,21,09,16,13.80
2018,05,21,09,17,13.80
2018,05,21,09,18,13.80
2018,05,21,09,19,13.80
2018,05,21,09,20,13.90
2018,05,21,09,21,13.90
2018,05,21,09,22,13.90
2018,05,21,09,23,13.90
2018,05,21,09,24,13.90
2018,05,21,09,25,13.90
2018,05,21,09,26,14.00
2018,05,21,09,27,14.00
2018,05,21,09,28,14.10
2018,05,21,09,29,14.10
2018,05,21,09,30,14.10
2018,05,21,09,31,14.20
2018,05,21,09,32,14.30
2018,05,21,09,33,14.40
2018,05,21,09,34,14.40
2018,05,21,09,35,14.50
2018,05,21,09,36,14.50
2018,05,21,09,37,14.60
2018,05,21,09,38,14.60
2018,05,21,09,39,14.60
2018,05,21,09,40,14.70
2018,05,21,09,41,14.70
2018,05,21,09,42,14.70
2018,05,21,09,43,14.70
2018,05,21,09,44,14.70
2018,05,21,09,45,14.80
2018,05,21,09,46,14.80
2018,05,21,09,47,14.80
2018,05,21,09,48,14.80
2018,05,21,09,49,14.70
2018,05,21,09,50,14.70
2018,05,21,09,51,14.60
2018,05,21,09,52,14.60
2018,05,21,09,53,14.50
2018,05,21,09,54,14.40
2018,05,21,09,55,14.40
2018,05,21,09,56,14.40
2018,05,21,09,57,14.40
2018,05,21,09,58,14.40
2018,05,21,09,59,14.40
2018,05,21,10,00,14.40
2018,05,21,10,01,14.40
2018,05,21,10,02,14.40
2018,05,21,10,03,14.40
2018,05,21,10,04,14.40
2018,05,21,10,05,14.40
2018,05,21,10,06,14.40
2018,05,21,10,07,14.40
2018,05,21,10,08,14.40
2018,05,21,10,09,14.40
2018,05,21,10,10,14.40
2018,05,21,10,11,14.50
2018,05,21,10,12,14.50
2018,05,21,10,13,14.60
2018,05,21,10,14,14.60
2018,05,21,10,15,14.60
2018,05,21,10,16,14.60
2018,05,21,10,17,14.60
2018,05,21,10,18,14.60
2018,05,21,10,19,14.70
2018,05,21,10,20,14.60
2018,05,21,10,21,14.60
2018,05,21,10,22,14.60
2018,05,21,10,23,14.70
2018,05,21,10,24,14.60
2018,05,21,10,25,14.60
2018,05,21,10,26,14.70
2018,05,21,10,27,14.70
2018,05,21,10,28,14.70
2018,05,21,10,29,14.70
2018,05,21,10,30,14.70
2018,05,21,10,31,14.70
2018,05,21,10,32,14.70
2018,05,21,10,33,14.70
2018,05,21,10,34,14.70
2018,05,21,10,35,14.70
2018,05,21,10,36,14.70
2018,05,21,10,37,14.70
2018,05,21,10,38,14.70
2018,05,21,10,39,14.80
2018,05,21,10,40,14.80
2018,05,21,10,41,14.80
2018,05,21,10,42,14.80
2018,05,21,10,43,14.80
2018,05,21,10,44,14.80
2018,05,21,10,45,14.90
2018,05,21,10,46,15.00
2018,05,21,10,47,15.00
2018,05,21,10,48,15.00
2018,05,21,10,49,15.00
2018,05,21,10,50,15.00
2018,05,21,10,51,15.10
2018,05,21,10,52,15.10
2018,05,21,10,53,15.20
2018,05,21,10,54,15.20
2018,05,21,10,55,15.20
2018,05,21,10,56,15.20
2018,05,21,10,57,15.20
2018,05,21,10,58,15.20
2018,05,21,10,59,15.30
2018,05,21,11,00,15.40
2018,05,21,11,01,15.50
2018,05,21,11,02,15.50
2018,05,21,11,03,15.60
2018,05,21,11,04,15.60
2018,05,21,11,05,15.70
2018,05,21,11,06,15.80
2018,05,21,11,07,15.90
2018,05,21,11,08,16.00
2018,05,21,11,09,16.00
2018,05,21,11,10,16.00
2018,05,21,11,11,15.90
2018,05,21,11,12,15.90
2018,05,21,11,13,15.80
2018,05,21,11,14,15.80
2018,05,21,11,15,15.70
2018,05,21,11,16,15.70
2018,05,21,11,17,15.70
2018,05,21,11,18,15.80
2018,05,21,11,19,15.90
2018,05,21,11,20,16.00
2018,05,21,11,21,16.10
2018,05,21,11,22,16.20
2018,05,21,11,23,16.20
2018,05,21,11,24,16.10
2018,05,21,11,25,16.00
2018,05,21,11,26,15.90
2018,05,21,11,27,15.90
2018,05,21,11,28,15.80
2018,05,21,11,29,15.80
2018,05,21,11,30,15.80
2018,05,21,11,31,15.90
2018,05,21,11,32,16.10
2018,05,21,11,33,16.20
2018,05,21,11,34,16.20
2018,05,21,11,35,16.20
2018,05,21,11,36,16.20
2018,05,21,11,37,16.20
2018,05,21,11,38,16.30
2018,05,21,11,39,16.30
2018,05,21,11,40,16.30
2018,05,21,11,41,16.30
2018,05,21,11,42,16.40
2018,05,21,11,43,16.50
2018,05,21,11,44,16.50
2018,05,21,11,45,16.50
2018,05,21,11,46,16.50
2018,05,21,11,47,16.40
2018,05,21,11,48,16.40
2018,05,21,11,49,16.30
2018,05,21,11,50,16.30
2018,05,21,11,51,16.20
2018,05,21,11,52,16.20
2018,05,21,11,53,16.30
2018,05,21,11,54,16.30
2018,05,21,11,55,16.40
2018,05,21,11,56,16.50
2018,05,21,11,57,16.60
2018,05,21,11,58,16.80
2018,05,21,11,59,16.90
2018,05,21,12,00,17.00
2018,05,21,12,01,17.10
2018,05,21,12,02,17.10
2018,05,21,12,03,17.20
2018,05,21,12,04,17.20
2018,05,21,12,05,17.20
2018,05,21,12,06,17.30
2018,05,21,12,07,17.30
2018,05,21,12,08,17.30
2018,05,21,12,09,17.50
2018,05,21,12,10,17.50
2018,05,21,12,11,17.60
2018,05,21,12,12,17.60
2018,05,21,12,13,17.50
2018,05,21,12,14,17.50
2018,05,21,12,15,17.40
2018,05,21,12,16,17.40
2018,05,21,12,17,17.40
2018,05,21,12,18,17.40
2018,05,21,12,19,17.40
2018,05,21,12,20,17.40
2018,05,21,12,21,17.30
2018,05,21,12,22,17.30
2018,05,21,12,23,17.20
2018,05,21,12,24,17.20
2018,05,21,12,25,17.00
2018,05,21,12,26,16.90
2018,05,21,12,27,17.00
2018,05,21,12,28,17.10
2018,05,21,12,29,17.20
2018,05,21,12,30,17.30
2018,05,21,12,31,17.40
2018,05,21,12,32,17.60
2018,05,21,12,33,17.60
2018,05,21,12,34,17.60
2018,05,21,12,35,17.50
2018,05,21,12,36,17.50
2018,05,21,12,37,17.50
2018,05,21,12,38,17.60
2018,05,21,12,39,17.60
2018,05,21,12,40,17.60
2018,05,21,12,41,17.60
2018,05,21,12,42,17.70
2018,05,21,12,43,17.90
2018,05,21,12,44,18.00
2018,05,21,12,45,18.10
2018,05,21,12,46,18.20
2018,05,21,12,47,18.20
2018,05,21,12,48,18.20
2018,05,21,12,49,18.20
2018,05,21,12,50,18.10
2018,05,21,12,51,17.90
2018,05,21,12,52,17.80
2018,05,21,12,53,17.60
2018,05,21,12,54,17.60
2018,05,21,12,55,17.50
2018,05,21,12,56,17.50
2018,05,21,12,57,17.50
2018,05,21,12,58,17.50
2018,05,21,12,59,17.60
2018,05,21,13,00,17.80
2018,05,21,13,01,17.90
2018,05,21,13,02,17.80
2018,05,21,13,03,17.90
2018,05,21,13,04,18.00
2018,05,21,13,05,18.10
2018,05,21,13,06,18.30
2018,05,21,13,07,18.40
2018,05,21,13,08,18.40
2018,05,21,13,09,18.40
2018,05,21,13,10,18.20
2018,05,21,13,11,17.90
2018,05,21,13,12,17.80
2018,05,21,13,13,17.80
2018,05,21,13,14,17.90
2018,05,21,13,15,17.90
2018,05,21,13,16,18.10
2018,05,21,13,17,18.10
2018,05,21,13,18,18.10
2018,05,21,13,19,18.10
2018,05,21,13,20,18.10
2018,05,21,13,21,18.10
2018,05,21,13,22,18.00
2018,05,21,13,23,17.90
2018,05,21,13,24,18.00
2018,05,21,13,25,18.20
2018,05,21,13,26,18.20
2018,05,21,13,27,18.20
2018,05,21,13,28,18.20
2018,05,21,13,29,18.20
2018,05,21,13,30,18.20
2018,05,21,13,31,18.30
2018,05,21,13,32,18.40
2018,05,21,13,33,18.50
2018,05,21,13,34,18.60
2018,05,21,13,35,18.70
2018,05,21,13,36,18.80
2018,05,21,13,37,18.90
2018,05,21,13,38,18.90
2018,05,21,13,39,19.00
2018,05,21,13,40,19.00
2018,05,21,13,41,18.90
2018,05,21,13,42,18.80
2018,05,21,13,43,18.70
2018,05,21,13,44,18.50
2018,05,21,13,45,18.40
2018,05,21,13,46,18.40
2018,05,21,13,47,18.50
2018,05,21,13,48,18.50
2018,05,21,13,49,18.60
2018,05,21,13,50,18.50
2018,05,21,13,51,18.50
2018,05,21,13,52,18.40
2018,05,21,13,53,18.30
2018,05,21,13,54,18.30
2018,05,21,13,55,18.40
2018,05,21,13,56,18.30
2018,05,21,13,57,18.30
2018,05,21,13,58,18.40
2018,05,21,13,59,18.40
2018,05,21,14,00,18.50
2018,05,21,14,01,18.50
2018,05,21,14,02,18.70
2018,05,21,14,03,18.90
2018,05,21,14,04,19.00
2018,05,21,14,05,19.10
2018,05,21,14,06,19.20
2018,05,21,14,07,19.30
2018,05,21,14,08,19.20
2018,05,21,14,09,19.10
2018,05,21,14,10,19.10
2018,05,21,14,11,19.10
2018,05,21,14,12,19.00
2018,05,21,14,13,19.00
2018,05,21,14,14,19.00
2018,05,21,14,15,19.00
2018,05,21,14,16,19.00
2018,05,21,14,17,19.00
2018,05,21,14,18,19.00
2018,05,21,14,19,19.00
2018,05,21,14,20,19.00
2018,05,21,14,21,18.90
2018,05,21,14,22,18.90
2018,05,21,14,23,18.90
2018,05,21,14,24,19.00
2018,05,21,14,25,19.00
2018,05,21,14,26,19.10
2018,05,21,14,27,19.20
2018,05,21,14,28,19.30
2018,05,21,14,29,19.40
2018,05,21,14,30,19.50
2018,05,21,14,31,19.60
2018,05,21,14,32,19.60
2018,05,21,14,33,19.60
2018,05,21,14,34,19.60
2018,05,21,14,35,19.60
2018,05,21,14,36,19.50
2018,05,21,14,37,19.50
2018,05,21,14,38,19.50
2018,05,21,14,39,19.60
2018,05,21,14,40,19.70
2018,05,21,14,41,19.80
2018,05,21,14,42,19.80
2018,05,21,14,43,19.80
2018,05,21,14,44,19.80
2018,05,21,14,45,19.80
2018,05,21,14,46,19.90
2018,05,21,14,47,20.00
2018,05,21,14,48,20.00
2018,05,21,14,49,20.10
2018,05,21,14,50,20.10
2018,05,21,14,51,20.00
2018,05,21,14,52,20.00
2018,05,21,14,53,20.00
2018,05,21,14,54,20.00
2018,05,21,14,55,19.90
2018,05,21,14,56,19.90
2018,05,21,14,57,19.90
2018,05,21,14,58,19.90
2018,05,21,14,59,19.80
2018,05,21,15,00,19.60
2018,05,21,15,01,19.50
2018,05,21,15,02,19.40
2018,05,21,15,03,19.50
2018,05,21,15,04,19.50
2018,05,21,15,05,19.50
2018,05,21,15,06,19.50
2018,05,21,15,07,19.50
2018,05,21,15,08,19.50
2018,05,21,15,09,19.60
2018,05,21,15,10,19.70
2018,05,21,15,11,19.80
2018,05,21,15,12,19.80
2018,05,21,15,13,19.80
2018,05,21,15,14,19.80
2018,05,21,15,15,19.70
2018,05,21,15,16,19.70
2018,05,21,15,17,19.70
2018,05,21,15,18,19.70
2018,05,21,15,19,19.70
2018,05,21,15,20,19.70
2018,05,21,15,21,19.70
2018,05,21,15,22,19.70
2018,05,21,15,23,19.70
2018,05,21,15,24,19.70
2018,05,21,15,25,19.70
2018,05,21,15,26,19.80
2018,05,21,15,27,19.80
2018,05,21,15,28,19.80
2018,05,21,15,29,19.90
2018,05,21,15,30,19.90
2018,05,21,15,31,19.90
2018,05,21,15,32,19.90
2018,05,21,15,33,19.90
2018,05,21,15,34,19.80
2018,05,21,15,35,19.80
2018,05,21,15,36,19.90
2018,05,21,15,37,19.80
2018,05,21,15,38,19.70
2018,05,21,15,39,19.70
2018,05,21,15,40,19.80
2018,05,21,15,41,19.80
2018,05,21,15,42,19.80
2018,05,21,15,43,19.90
2018,05,21,15,44,19.90
2018,05,21,15,45,19.90
2018,05,21,15,46,19.80
2018,05,21,15,47,19.80
2018,05,21,15,48,19.80
2018,05,21,15,49,19.80
2018,05,21,15,50,19.80
2018,05,21,15,51,19.90
2018,05,21,15,52,19.80
2018,05,21,15,53,19.70
2018,05,21,15,54,19.70
2018,05,21,15,55,19.80
2018,05,21,15,56,19.80
2018,05,21,15,57,19.80
2018,05,21,15,58,19.80
2018,05,21,15,59,19.80
2018,05,21,16,00,19.80
2018,05,21,16,01,19.80
2018,05,21,16,02,19.90
2018,05,21,16,03,19.90
2018,05,21,16,04,20.00
2018,05,21,16,05,20.10
2018,05,21,16,06,20.00
2018,05,21,16,07,20.10
2018,05,21,16,08,20.10
2018,05,21,16,09,20.10
2018,05,21,16,10,20.00
2018,05,21,16,11,20.00
2018,05,21,16,12,20.00
2018,05,21,16,13,20.00
2018,05,21,16,14,20.00
2018,05,21,16,15,19.90
2018,05,21,16,16,19.80
2018,05,21,16,17,19.80
2018,05,21,16,18,19.90
2018,05,21,16,19,20.00
2018,05,21,16,20,20.10
2018,05,21,16,21,20.10
2018,05,21,16,22,20.00
2018,05,21,16,23,20.00
2018,05,21,16,24,19.90
2018,05,21,16,25,20.00
2018,05,21,16,26,20.10
2018,05,21,16,27,20.10
2018,05,21,16,28,20.10
2018,05,21,16,29,20.20
2018,05,21,16,30,20.10
2018,05,21,16,31,20.10
2018,05,21,16,32,20.10
2018,05,21,16,33,20.30
2018,05,21,16,34,20.30
2018,05,21,16,35,20.30
2018,05,21,16,36,20.30
2018,05,21,16,37,20.30
2018,05,21,16,38,20.30
2018,05,21,16,39,20.30
2018,05,21,16,40,20.30
2018,05,21,16,41,20.30
2018,05,21,16,42,20.40
2018,05,21,16,43,20.40
2018,05,21,16,44,20.40
2018,05,21,16,45,20.40
2018,05,21,16,46,20.40
2018,05,21,16,47,20.40
2018,05,21,16,48,20.40
2018,05,21,16,49,20.40
2018,05,21,16,50,20.30
2018,05,21,16,51,20.40
2018,05,21,16,52,20.40
2018,05,21,16,53,20.40
2018,05,21,16,54,20.50
2018,05,21,16,55,20.60
2018,05,21,16,56,20.50
2018,05,21,16,57,20.50
2018,05,21,16,58,20.40
2018,05,21,16,59,20.40
2018,05,21,17,00,20.40
2018,05,21,17,01,20.50
2018,05,21,17,02,20.50
2018,05,21,17,03,20.60
2018,05,21,17,04,20.70
2018,05,21,17,05,20.80
2018,05,21,17,06,20.80
2018,05,21,17,07,20.70
2018,05,21,17,08,20.70
2018,05,21,17,09,20.60
2018,05,21,17,10,20.60
2018,05,21,17,11,20.50
2018,05,21,17,12,20.50
2018,05,21,17,13,20.40
2018,05,21,17,14,20.50
2018,05,21,17,15,20.60
2018,05,21,17,16,20.70
2018,05,21,17,17,20.70
2018,05,21,17,18,20.70
2018,05,21,17,19,20.80
2018,05,21,17,20,20.90
2018,05,21,17,21,21.00
2018,05,21,17,22,21.00
2018,05,21,17,23,21.10
2018,05,21,17,24,21.10
2018,05,21,17,25,21.10
2018,05,21,17,26,21.10
2018,05,21,17,27,21.00
2018,05,21,17,28,20.90
2018,05,21,17,29,20.80
2018,05,21,17,30,20.70
2018,05,21,17,31,20.70
2018,05,21,17,32,20.70
2018,05,21,17,33,20.80
2018,05,21,17,34,20.80
2018,05,21,17,35,20.70
2018,05,21,17,36,20.60
2018,05,21,17,37,20.50
2018,05,21,17,38,20.40
2018,05,21,17,39,20.30
2018,05,21,17,40,20.30
2018,05,21,17,41,20.40
2018,05,21,17,42,20.40
2018,05,21,17,43,20.40
2018,05,21,17,44,20.40
2018,05,21,17,45,20.40
2018,05,21,17,46,20.40
2018,05,21,17,47,20.40
2018,05,21,17,48,20.40
2018,05,21,17,49,20.50
2018,05,21,17,50,20.50
2018,05,21,17,51,20.60
2018,05,21,17,52,20.70
2018,05,21,17,53,20.70
2018,05,21,17,54,20.80
2018,05,21,17,55,20.80
2018,05,21,17,56,20.80
2018,05,21,17,57,20.80
2018,05,21,17,58,20.80
2018,05,21,17,59,20.80
2018,05,21,18,00,20.80
2018,05,21,18,01,20.80
2018,05,21,18,02,20.80
2018,05,21,18,03,20.80
2018,05,21,18,04,20.80
2018,05,21,18,05,20.80
2018,05,21,18,06,20.80
2018,05,21,18,07,20.80
2018,05,21,18,08,20.90
2018,05,21,18,09,21.00
2018,05,21,18,10,21.10
2018,05,21,18,11,21.20
2018,05,21,18,12,21.20
2018,05,21,18,13,21.10
2018,05,21,18,14,21.10
2018,05,21,18,15,21.10
2018,05,21,18,16,21.10
2018,05,21,18,17,21.10
2018,05,21,18,18,21.10
2018,05,21,18,19,21.00
2018,05,21,18,20,21.00
2018,05,21,18,21,20.90
2018,05,21,18,22,20.80
2018,05,21,18,23,20.80
2018,05,21,18,24,20.80
2018,05,21,18,25,20.80
2018,05,21,18,26,20.80
2018,05,21,18,27,20.90
2018,05,21,18,28,20.90
2018,05,21,18,29,20.80
2018,05,21,18,30,20.70
2018,05,21,18,31,20.60
2018,05,21,18,32,20.60